Location: Unspecified
(47.6578°N, 23.5640°E)
Time: 04:18:40
(UTC+02:00)

ISS - Pass Details

Date: 11 December 2017
Orbit: 402 x 407 km, 51.6° (Epoch: 10 December)

Event Time Altitude Azimuth Distance (km) Brightness Sun altitude
Rises 19:11:59 0° 292° (WNW) 2,331 1.0 -25.5°
Reaches altitude 10° 19:14:06 10° 287° (WNW) 1,467 -0.2 -25.9°
Enters shadow 19:15:46 26° 274° (W) 848 -1.6 -26.2°
